Location: Bukit Lungun
(2.6833°N, 113.9667°E)
Time: 14:31:55
(UTC+00:00)

Cosmos 2278 - Pass Details

Date: 02 March 2021
Orbit: 838 x 854 km, 71.1° (Epoch: 13 April)

Event Time Altitude Azimuth Distance (km) Brightness Sun altitude
Exits shadow 21:08:42 46° 284° (WNW) 1,124 3.9 -22.0°
Maximum altitude 21:09:34 50° 255° (WSW) 1,067 3.8 -21.8°
Drops below altitude 10° 21:15:03 10° 180° (S) 2,472 6.2 -20.4°
Sets 21:17:34 0° 175° (S) 3,406 7.0 -19.8°
